TimeCST,TemperatureF,Dew PointF,Humidity,Sea Level PressureIn,VisibilityMPH,Wind Direction,Wind SpeedMPH,Gust SpeedMPH,PrecipitationIn,Events,Conditions,WindDirDegrees,DateUTC
12:56 AM,60.1,48.9,67,30.14,10.0,SE,9.2,-,N/A,,Clear,130,2013-02-10 06:56:00
1:56 AM,62.1,50.0,65,30.13,10.0,SE,9.2,-,N/A,,Clear,130,2013-02-10 07:56:00
2:56 AM,62.1,55.0,78,30.12,10.0,ESE,9.2,-,N/A,,Clear,120,2013-02-10 08:56:00
3:56 AM,62.1,55.9,80,30.11,10.0,East,9.2,-,N/A,,Partly Cloudy,100,2013-02-10 09:56:00
4:53 AM,60.8,57.2,88,30.10,10.0,ESE,12.7,18.4,N/A,,Mostly Cloudy,110,2013-02-10 10:53:00
4:56 AM,63.0,57.0,81,30.11,10.0,ESE,13.8,18.4,N/A,,Mostly Cloudy,120,2013-02-10 10:56:00
5:40 AM,64.4,57.2,77,30.11,10.0,SE,16.1,-,N/A,,Overcast,130,2013-02-10 11:40:00
5:56 AM,64.0,57.9,80,30.10,10.0,SE,16.1,-,N/A,,Mostly Cloudy,130,2013-02-10 11:56:00
6:46 AM,64.4,60.8,88,30.08,10.0,SE,16.1,-,N/A,,Mostly Cloudy,130,2013-02-10 12:46:00
6:56 AM,64.0,61.0,90,30.09,10.0,SE,16.1,-,N/A,,Mostly Cloudy,130,2013-02-10 12:56:00
7:56 AM,64.9,61.0,87,30.12,10.0,ESE,15.0,-,N/A,,Overcast,120,2013-02-10 13:56:00
8:56 AM,66.0,62.1,87,30.14,10.0,ESE,13.8,-,N/A,,Overcast,110,2013-02-10 14:56:00
9:56 AM,66.9,62.1,84,30.13,10.0,SE,17.3,24.2,N/A,,Overcast,130,2013-02-10 15:56:00
10:56 AM,66.9,63.0,87,30.12,10.0,SE,11.5,-,N/A,,Overcast,130,2013-02-10 16:56:00
11:08 AM,66.2,62.6,88,30.11,10.0,SE,15.0,-,N/A,,Overcast,130,2013-02-10 17:08:00
11:56 AM,68.0,64.0,87,30.09,10.0,SE,17.3,24.2,N/A,,Overcast,130,2013-02-10 17:56:00
12:56 PM,69.1,64.9,87,30.04,9.0,SSE,17.3,24.2,N/A,,Overcast,150,2013-02-10 18:56:00
1:20 PM,69.8,64.4,83,30.02,8.0,SE,17.3,-,N/A,,Overcast,140,2013-02-10 19:20:00
1:56 PM,69.1,64.9,87,30.01,8.0,SE,17.3,-,N/A,,Overcast,140,2013-02-10 19:56:00
2:56 PM,68.0,64.9,90,30.02,8.0,SSE,13.8,21.9,0.00,Rain,Light Rain,150,2013-02-10 20:56:00
3:02 PM,68.0,64.4,88,30.01,8.0,SSE,13.8,-,0.00,,Overcast,150,2013-02-10 21:02:00
3:56 PM,68.0,64.9,90,30.03,6.0,SSE,12.7,-,0.00,,Overcast,150,2013-02-10 21:56:00
4:26 PM,68.0,66.2,94,30.02,6.0,SSE,13.8,-,N/A,,Overcast,150,2013-02-10 22:26:00
4:56 PM,68.0,66.0,93,30.02,6.0,SE,16.1,23.0,0.00,Rain,Light Rain,140,2013-02-10 22:56:00
5:30 PM,68.0,66.2,94,30.02,6.0,SSE,12.7,24.2,0.00,,Overcast,160,2013-02-10 23:30:00
5:52 PM,68.0,66.2,94,30.02,8.0,WSW,17.3,23.0,0.00,,Overcast,240,2013-02-10 23:52:00
5:56 PM,68.0,66.0,93,30.03,8.0,South,10.4,23.0,0.00,,Overcast,180,2013-02-10 23:56:00
6:56 PM,68.0,66.9,96,30.03,7.0,South,13.8,-,N/A,,Overcast,170,2013-02-11 00:56:00
7:31 PM,68.0,66.2,94,30.04,7.0,South,12.7,-,N/A,,Overcast,180,2013-02-11 01:31:00
7:47 PM,68.0,66.2,94,30.04,7.0,South,13.8,-,N/A,,Overcast,180,2013-02-11 01:47:00
7:56 PM,68.0,66.9,96,30.04,7.0,South,15.0,-,N/A,,Overcast,180,2013-02-11 01:56:00
8:56 PM,68.0,66.0,93,30.06,7.0,South,12.7,-,N/A,,Mostly Cloudy,180,2013-02-11 02:56:00
9:56 PM,68.0,66.0,93,30.04,7.0,South,10.4,-,N/A,,Overcast,180,2013-02-11 03:56:00
10:56 PM,68.0,66.9,96,30.06,7.0,SSW,11.5,-,N/A,,Overcast,200,2013-02-11 04:56:00
11:41 PM,69.8,68.0,94,30.04,7.0,SSW,9.2,19.6,0.00,Rain,Light Rain,200,2013-02-11 05:41:00
11:56 PM,69.1,68.0,96,30.05,7.0,SSW,13.8,20.7,0.00,Rain,Light Rain,210,2013-02-11 05:56:00